Regional Weather Roundup
Issued by NWS Kansas City/Pleasant Hill, MO

Home | Current Version | Previous Version | Graphics & Text | Print | Product List | Glossary Off
Versions: 1 2 3 4 5 6 7 8 9 10 11 12 13 14 15 16 17 18 19 20 21 22 23 24 25 26 27

000
ASUS43 KEAX 190610
RWREAX

WEATHER ROUNDUP FOR EASTERN KANSAS AND NORTHWEST MISSOURI
NATIONAL WEATHER SERVICE KANSAS CITY/PLEASANT HILL MO
100 AM CDT SAT AUG 19 2017

KSZ040-057-103>105-MOZ028-029-037-043-190700-
...KANSAS CITY METROPOLITAN AREA...

CITY           SKY/WX    TMP DP  RH WIND       PRES   REMARKS
K.C. INTL      CLEAR     69  66  90 S6        29.94S
6HR MIN TEMP:  68; 6HR MAX TEMP:  76;

K.C. DOWNTOWN  CLEAR     74  71  91 CALM      29.92F
6HR MIN TEMP:  73; 6HR MAX TEMP:  87;

LEES SUMMIT    CLEAR     73  71  93 S5        29.95S
6HR MIN TEMP:  73; 6HR MAX TEMP:  85;

OLATHE - IXD   CLEAR     71  69  93 S5        29.96S
6HR MIN TEMP:  71; 6HR MAX TEMP:  86;

OLATHE - OJC   CLEAR     70  70 100 S3        29.95F
6HR MIN TEMP:  70; 6HR MAX TEMP:  85;

LAWRENCE       CLEAR     69  69 100 SE3       29.94S

$$

MOZ001>008-011>017-020>025-030>033-038>040-044>046-053-054-190700-
...NORTHERN AND CENTRAL MISSOURI...

CITY           SKY/WX    TMP DP  RH WIND       PRES   REMARKS
ST. JOSEPH     CLEAR     65  65 100 CALM      29.94S
6HR MIN TEMP:  65; 6HR MAX TEMP:  82;

WARRENSBURG    CLEAR     68  64  88 S5        29.94F
WHITEMAN AFB   CLEAR     69  69 100 S7        29.94F
6HR MIN TEMP:  69; 6HR MAX TEMP:  84; 6HR PCP:  0.37;

CLINTON        MOCLDY    72  70  94 E5        29.97R
SEDALIA        PTCLDY    69  69 100 S7        29.96F
6HR MIN TEMP:  68; 6HR MAX TEMP:  82; 6HR PCP:  1.07;

WARSAW         NOT AVBL
CHILLICOTHE      N/A     65  65 100 CALM      29.94R
6HR MIN TEMP:  65; 6HR MAX TEMP:  76;

KIRKSVILLE     CLEAR     68  66  93 SW6       29.93S
6HR MIN TEMP:  63; 6HR MAX TEMP:  81;


$$

MOZ041-047>049-056>058-063>065-088>090-097-190700-
...EASTERN AND SOUTHERN MISSOURI...

CITY           SKY/WX    TMP DP  RH WIND       PRES   REMARKS
ST. LOUIS INTL CLOUDY    75  67  76 NW6       29.94R
6HR MIN TEMP:  75; 6HR MAX TEMP:  84; 6HR PCP: TRACE;

SPIRIT OF STL  CLOUDY    72  69  90 CALM      29.92R
COLUMBIA       CLEAR     71  67  87 W7        29.94F
JEFFERSON CITY CLOUDY    74  69  85 N3        29.92F
ROLLA          LGT RAIN  72  70  93 SW13      29.98F
OSAGE BEACH    CLOUDY    68  67  96 SE3       29.98F
SPRINGFIELD    PTCLDY    70  67  90 S6        30.00R
BRANSON          N/A     68  66  94 CALM      30.01R
JOPLIN         CLEAR     72  70  93 S6        29.98R
WEST PLAINS    CLEAR     70  68  93 CALM      30.01R

$$

IAZ060-094-KSZ022-034>040-054-083-096-NEZ052-066-093-190700-
...KANSAS...SOUTHEAST NEBRASKA AND IOWA...

CITY           SKY/WX    TMP DP  RH WIND       PRES   REMARKS
TOPEKA         CLEAR     69  69 100 CALM      29.94S
6HR MIN TEMP:  69; 6HR MAX TEMP:  88;

MANHATTAN      CLEAR     68  67  96 CALM      29.96R
EMPORIA        CLEAR     72  68  87 NW3       29.97R
CHANUTE        CLEAR     72  69  90 E3        29.97R
WICHITA        MOCLDY    78  67  68 E6        29.96R
OMAHA          PTCLDY    70  62  76 N10       29.94R
LINCOLN        CLEAR     68  65  90 CALM      29.97S
FALLS CITY     CLEAR     66  64  93 N3        29.94R
LAMONI         MOCLDY    68  65  90 W5        29.92F
DES MOINES     CLOUDY    72  66  81 SE9       29.89F

$$





USA.gov is the U.S. government's official web portal to all federal, state and local government web resources and services.